This is the latest recevied weather packets stored in our database for station/object IZ8QAD-4. If no packets are shown the sender has not sent any weather packets the latest 10 day(s).
| Time | Temp. | Humidity | Pressure | Rain* | Wind** | Luminosity | Snow |
|---|---|---|---|---|---|---|---|
| 1777704390 | 20.56° C | 30% | 974.7 hPa | - | - | - | - |
| 1777702590 | 20° C | 33% | 974.6 hPa | - | - | - | - |
| 1777700790 | 21.67° C | 32% | 974.5 hPa | - | - | - | - |
| 1777698990 | 22.78° C | 34% | 974.4 hPa | - | - | - | - |
| 1777697189 | 22.22° C | 35% | 974.3 hPa | - | - | - | - |
| 1777695389 | 22.22° C | 34% | 974 hPa | - | - | - | - |
| 1777693589 | 22.78° C | 34% | 973.9 hPa | - | - | - | - |
| 1777691789 | 22.78° C | 34% | 973.7 hPa | - | - | - | - |
| 1777689988 | 22.78° C | 33% | 973.8 hPa | - | - | - | - |
| 1777688187 | 22.78° C | 33% | 973.7 hPa | - | - | - | - |
| 1777686387 | 23.33° C | 32% | 974 hPa | - | - | - | - |
| 1777684587 | 23.33° C | 32% | 974 hPa | - | - | - | - |
| 1777682787 | 23.33° C | 32% | 974 hPa | - | - | - | - |
| 1777680987 | 23.33° C | 32% | 974.4 hPa | - | - | - | - |
| 1777679187 | 23.33° C | 31% | 974.2 hPa | - | - | - | - |
| 1777677386 | 23.33° C | 31% | 974.3 hPa | - | - | - | - |
| 1777675586 | 23.33° C | 31% | 974.3 hPa | - | - | - | - |
| 1777673786 | 23.33° C | 31% | 974.3 hPa | - | - | - | - |
| 1777671986 | 23.33° C | 31% | 974.5 hPa | - | - | - | - |
| 1777670185 | 23.33° C | 30% | 974.5 hPa | - | - | - | - |
| 1777668385 | 23.33° C | 30% | 974.4 hPa | - | - | - | - |
| 1777666585 | 23.33° C | 31% | 974.2 hPa | - | - | - | - |
| 1777664789 | 23.33° C | 30% | 973.9 hPa | - | - | - | - |
| 1777662989 | 23.33° C | 30% | 973.8 hPa | - | - | - | - |
| 1777661188 | 22.78° C | 28% | 973.6 hPa | - | - | - | - |
* Rain since midnight (hover to see other rain measurements)
** Current wind speed in m/s (hover to see current wind gust speed)